Regional Weather Roundup
Issued by NWS

Home | Current Version | Previous Version | Text Only | Print | Product List | Glossary Off
Versions: 1 2 3 4 5 6 7 8 9 10 11 12 13 14 15 16 17 18 19 20 21 22 23 24 25 26 27 28 29 30 31 32 33 34 35 36 37 38 39 40 41 42 43 44 45 46 47 48 49 50

000
ASUS43 KLOT 261804
RWRIL

ILLINOIS REGIONAL WEATHER ROUNDUP
NATIONAL WEATHER SERVICE CHICAGO/ROMEOVILLE IL
100 PM CDT FRI MAY 26 2017

NOTE: "FAIR" INDICATES FEW OR NO CLOUDS BELOW 12,000 FEET WITH NO
SIGNIFICANT WEATHER AND/OR OBSTRUCTIONS TO VISIBILITY.

* THESE STATIONS ARE NOT UNDER NWS QUALITY CONTROL. THEY ALSO MAY NOT
  REPORT WEATHER SUCH AS PRECIPITATION OR FOG.

ILZ001-002-007-009-015-016-024-261900-
NORTHWEST ILLINOIS

CITY           SKY/WX    TMP DP  RH WIND       PRES   REMARKS
MOLINE         TSTM      62  59  90 E8        29.76R FOG
6HR MIN TEMP:  59; 6HR MAX TEMP:  73; 6HR PCP:  0.32;

STERLING*      LGT RAIN  68  60  75 SE8       29.79S
$$

ILZ003-004-008-010-011-017-018-261900-
NORTH CENTRAL ILLINOIS

CITY           SKY/WX    TMP DP  RH WIND       PRES   REMARKS
ROCKFORD       LGT RAIN  68  58  70 SE8       29.83R
6HR MIN TEMP:  57; 6HR MAX TEMP:  70; 6HR PCP:  0.01;

$$

ILZ005-006-012>014-019>023-261900-
NORTHEAST ILLINOIS

CITY           SKY/WX    TMP DP  RH WIND       PRES   REMARKS
CHICAGO-OHARE  CLOUDY    67  53  61 E13       29.82R
6HR MIN TEMP:  58; 6HR MAX TEMP:  71;

CHICAGO-MIDWAY CLOUDY    69  55  60 E13       29.82R
6HR MIN TEMP:  58; 6HR MAX TEMP:  69;

AURORA         CLOUDY    71  57  61 SE13      29.83R
6HR MIN TEMP:  57; 6HR MAX TEMP:  71; 6HR PCP: TRACE;

WAUKEGAN       CLOUDY    56  51  84 E6        29.85R
6HR MIN TEMP:  54; 6HR MAX TEMP:  61;

DUPAGE AIRPORT CLOUDY    68  57  68 SE10      29.81S
6HR MIN TEMP:  57; 6HR MAX TEMP:  71;

WHEELING       CLOUDY    62  54  74 E8        29.84R
6HR MIN TEMP:  55; 6HR MAX TEMP:  66;

NORTHERLY ISL    N/A     57  50  77 N3          N/A
$$

LMZ740>746-261900-
SOUTHERN LAKE MICHIGAN

STATION/POSITION SKY/WX   TEMP    WIND        PRES    VSBY  WAVE
                          AIR SEA DIR/SP/G                  HT/PER
                          (F)     (DEG/KT/KT) (MB)    (MI)  (FT/S)
SOUTHERN BUOY              47 47  160/  2/  2 1011.7          1/ 3
WILMETTE HARBOR            51 52                N/A           1/ 4
HARRISON CRIB              56      80/ 11/ 12   N/A
BURNHAM HARBOR             56      60/  5/  7   N/A
CALUMET HARBOR             58      50/  6/  9 1010.0R
BURNS HARBOR               60      70/ 10/ 13 1010.8S
MICHIGAN CITY              57      40/ 10/ 10   N/A
MICHIGAN CITY 6N           55 53   50/  8/  8   N/A           1/ 4
ST. JOSEPH                 56 56  350/  4/  6 1010.9F         1/ 4
$$

ILZ025>027-034>036-040-047-049-050-058-095>099-261900-
WEST-CENTRAL ILLINOIS

CITY           SKY/WX    TMP DP  RH WIND       PRES   REMARKS
QUINCY         CLOUDY    75  66  73 W5        29.73F
$$

ILZ028>032-037-038-041>044-048-051>054-059>061-261900-
CENTRAL ILLINOIS

CITY           SKY/WX    TMP DP  RH WIND       PRES   REMARKS
BLOOMINGTON    CLOUDY    74  62  66 S12       29.80F
DECATUR        CLOUDY    77  63  61 S14       29.78R
PEORIA         CLOUDY    75  62  64 S10       29.75F
6HR MIN TEMP:  59; 6HR MAX TEMP:  76;

SPRINGFIELD    SUNNY     79  65  62 VRB3      29.76F HX  81
6HR MIN TEMP:  61; 6HR MAX TEMP:  79; 6HR PCP:  0.01;

TAYLORVILLE    NOT AVBL
$$

ILZ033-039-045-046-055>057-062-063-261900-
EAST-CENTRAL ILLINOIS

CITY           SKY/WX    TMP DP  RH WIND       PRES   REMARKS
CHAMPAIGN      CLOUDY    76  61  59 SE16      29.80R
MATTOON        MOSUNNY   77  66  68 S13G25    29.80R
$$

ILZ079-100>102-261900-
SOUTHWEST ILLINOIS

CITY           SKY/WX    TMP DP  RH WIND       PRES   REMARKS
ALTON          SUNNY     79  64  61 SE8       29.75F HX  81
BELLEVILLE     MOSUNNY   80  65  60 S12       29.76F HX  82
CAHOKIA*       SUNNY     83  63  50 S8        29.73F HX  84
SPARTA*        PTSUNNY   77  64  64 S14G20    29.78F
$$

ILZ064>066-069>071-074>076-080>082-084>086-088>090-092>094-261900-
SOUTH-CENTRAL ILLINOIS

CITY           SKY/WX    TMP DP  RH WIND       PRES   REMARKS
CARBONDALE     SUNNY     81  64  56 S15G29    29.78F HX  82
6HR MIN TEMP:  61; 6HR MAX TEMP:  81;

MARION         MOSUNNY   81  64  57 S14       29.80F HX  82
MT. VERNON       N/A     80  64  58 S8G16     29.79R HX  82
CENTRALIA*     SUNNY     80  66  63 S14       29.78R HX  82
SALEM*         SUNNY     80  62  54 S13       29.79S HX  81
$$

ILZ067-068-072-073-078-083-087-091-261900-
SOUTHEAST ILLINOIS

CITY           SKY/WX    TMP DP  RH WIND       PRES   REMARKS
LAWRENCEVILLE  CLOUDY    78  65  63 S16       29.82R HX  80
ROBINSON*      MOSUNNY   77  65  66 S16       29.83R
$$

ABBREVIATIONS USED IN REMARKS
   TC - TEMPERATURE IN CELSIUS
  WCI - WIND CHILL INDEX
   HX - HEAT INDEX
  VSB - VISIBILITY
$$





USA.gov is the U.S. government's official web portal to all federal, state and local government web resources and services.